sat.trackr.live / text

‹ back to catalog

KUIPER-00194

NORAD 68577 · 2026-072E

PAYLOAD ACTIVE UNKNOWN

§ Identity

Operator
Country
US
Launch date
2026-04-04
Launch site
AFETR
Launch vehicle
Mass (kg)
RCS (m²)

External: N2YO · Heavens-Above · Gunter

§ Orbital elements

Epoch: 2026-05-25T04:00:03.998880Z

Period
96.73 min
Inclination
51.8961°
Eccentricity
0.0004163
Mean motion
14.88698019 rev/d
Perigee alt
599.1 km
Apogee alt
604.9 km
Semi-major
6,980.1 km
B*
-8.3388e-3
RAAN
292.6248°
Arg perigee
316.3116°
Mean anomaly
293.3473°
Rev number
495

§ Raw data

KUIPER-001941 68577U 26072E   26145.16671295 -.00078009  00000+0 -83388-2 0  99922 68577  51.8961 292.6248 0004163 316.3116 293.3473 14.88698019  4956

JSON: /api/v1/satellites/68577 · /tle

For live sub-satellite position, see the globe view (requires WebGL).

§ Visibility from observer

Set your observer location to see the next 7 days of passes ≥ 10°. The values pass through the URL so the page stays shareable.

No JS? Fill the form by hand. The geolocation button needs JavaScript.